Zeerust Airport

Jump to: basic info | weather | runways | comments

Related pages: nearby airports | nearby navaids | notams | map

Basic information (top)

Codes: FAZR
Location: lon -25.599001, lat 26.042299, elev 4,258 ft / 1,298 m msl
Status: small_airport

Weather (top)

Current conditions for Manyani Game Lodge Airport 22nm (41km) SW (rec'd 2014/04/23 06:00Z):

FAML 230600Z 16005KT CAVOK 11/// Q1017

Airport forecast for Mmabatho International Airport 29nm (54km) WSW (rec'd 2014/12/08 07:00Z):

TAF FAMM 080630Z 0807/0818 03007KT CAVOK 
      BECMG 0808/0810 33011KT SCT040 
      TEMPO 0811/0816 4000 TSRA SCT035CB TX28/0812ZTN19/0807Z

Runways (top)

04/22: 6,480 x 100 ft (1,975 x 30 m) — paved — not lighted

Latest comments (top)

No comments yet for Zeerust Airport

More... (top)

See also NOTAMs and nearby airports and navaids, or visit the Zeerust Airport page at the main OurAirports website..